Weather History for Cape Girardeau, MO

Change the Weather History Date:

Thursday, February 2, 2012

  Actual Average Record
Temperature  
Mean Temperature 49 °F 35 °F  
Max Temperature 65 °F 44 °F 65 °F (2012)
Min Temperature 32 °F 25 °F -8 °F (1965)
Degree Days  
Heating Degree Days 16 30  
Month to date heating degree days 29 61  
Since 1 July heating degree days 2297 2799  
Cooling Degree Days 0 0  
Month to date cooling degree days 0 0  
Year to date cooling degree days 0 0  
Moisture  
Dew Point 35 °F    
Average Humidity 62    
Maximum Humidity 96    
Minimum Humidity 28    
Precipitation  
Precipitation 0.00 in 0.13 in 2.70 in (1989)
Month to date precipitation 0.00 0.26  
Year to date precipitation 2.97 3.73  
Sea Level Pressure  
Sea Level Pressure 30.28 in    
Wind  
Wind Speed 3 mph (ESE)    
Max Wind Speed 9 mph    
Max Gust Speed 13 mph    
Visibility 10 miles    
Events      
T = Trace of Precipitation, MM = Missing Value Source: NWS Daily Summary

Daily Weather History Graph

Daily Weather History Graph

Search for Another Location

Airport:

Trip Planner

Search our weather history database for the weather conditions in past years. The results will help you decide how hot, cold, wet, or windy it might be!

Date:

Astronomy

Feb. 02, 2012 Rise Set
Actual Time 7:00 AM CST 5:23 PM CST
Civil Twilight 6:33 AM CST 5:50 PM CST
Nautical Twilight 6:02 AM CST 6:22 PM CST
Astronomical Twilight 5:31 AM CST 6:52 PM CST
Moon 12:37 PM CST (2/2) 2:40 AM CST (2/2)
Length of Visible Light 11h 17m
Length of Day
10h 22m
Waxing Gibbous, 74% of the Moon is Illuminated
Feb 2
Waxing Gibbous
Feb 7
Full
Feb 14
Last Quarter
Feb 21
New
Feb 29
First Quarter

Hourly Weather History & Observations

Time (CST) Temp. Windchill Dew Point Humidity Pressure Visibility Wind Dir Wind Speed Gust Speed Precip Events Conditions
12:53 AM 39.9 °F 37.8 °F 36.0 °F 86% 30.19 in 10.0 mi WSW 3.5 mph - N/A   Clear
1:53 AM 37.9 °F - 34.0 °F 86% 30.19 in 10.0 mi Calm Calm - N/A   Clear
2:53 AM 37.0 °F 34.5 °F 34.0 °F 89% 30.22 in 10.0 mi NNW 3.5 mph - N/A   Clear
3:53 AM 36.0 °F 33.3 °F 33.1 °F 89% 30.23 in 10.0 mi SW 3.5 mph - N/A   Clear
4:53 AM 34.0 °F - 32.0 °F 92% 30.25 in 10.0 mi Calm Calm - N/A   Clear
5:53 AM 33.1 °F - 30.9 °F 92% 30.26 in 10.0 mi Calm Calm - N/A   Clear
6:53 AM 34.0 °F - 32.0 °F 92% 30.28 in 4.0 mi Calm Calm - N/A   Clear
7:53 AM 35.1 °F - 34.0 °F 96% 30.29 in 6.0 mi Calm Calm - N/A   Clear
8:53 AM 43.0 °F - 39.0 °F 86% 30.31 in 10.0 mi Calm Calm - N/A   Clear
9:53 AM 50.0 °F - 41.0 °F 71% 30.32 in 10.0 mi East 3.5 mph - N/A   Clear
10:53 AM 55.9 °F - 39.0 °F 53% 30.32 in 10.0 mi ENE 4.6 mph - N/A   Clear
11:53 AM 60.1 °F - 37.9 °F 44% 30.30 in 10.0 mi Calm Calm - N/A   Clear
12:53 PM 63.0 °F - 34.0 °F 34% 30.28 in 10.0 mi Calm Calm - N/A   Clear
1:53 PM 64.0 °F - 33.1 °F 31% 30.26 in 10.0 mi NE 4.6 mph - N/A   Clear
2:53 PM 64.0 °F - 30.9 °F 29% 30.26 in 10.0 mi Calm Calm - N/A   Clear
3:53 PM 63.0 °F - 32.0 °F 31% 30.27 in 10.0 mi ESE 5.8 mph - N/A   Clear
4:53 PM 57.0 °F - 39.0 °F 51% 30.27 in 10.0 mi SSE 6.9 mph - N/A   Clear
5:53 PM 51.1 °F - 39.0 °F 63% 30.28 in 10.0 mi SE 5.8 mph - N/A   Clear
6:53 PM 48.0 °F - 39.0 °F 71% 30.30 in 10.0 mi ESE 5.8 mph - N/A   Clear
7:53 PM 48.9 °F - 36.0 °F 61% 30.31 in 10.0 mi ESE 5.8 mph - N/A   Clear
8:53 PM 46.0 °F 42.5 °F 34.0 °F 63% 30.32 in 10.0 mi East 6.9 mph - N/A   Clear
9:53 PM 46.0 °F 44.8 °F 34.0 °F 63% 30.33 in 10.0 mi ESE 3.5 mph - N/A   Clear
10:53 PM 45.0 °F 42.6 °F 33.1 °F 63% 30.32 in 10.0 mi East 4.6 mph - N/A   Clear
11:53 PM 45.0 °F 42.6 °F 33.1 °F 63% 30.32 in 10.0 mi ENE 4.6 mph - N/A   Clear